星链-31705 (STARLINK-31705 )

导读

STARLINK-31705是美国SpaceX星链互联网卫星星座的一员,于2024年4月2日发射入轨,服务于全球低延迟宽带互联网覆盖,尤其服务偏远地区与移动场景。星链星座以近地轨道大规模组网为特点,该卫星继承了星座低轨道、小体积设计,持续为全球用户提供天基互联网接入服务。

Basic Information
目录编号:
59382
目录名称:
STARLINK-31705
国际标识:
2024-062J
轨道中心:
EARTH
卫星名称:
星链-31705
卫星全名:
星链-31705 (STARLINK-31705 )
卫星状态:
在轨 (已飞行886 天)
发射日期:
2024-04-02 UTC
国别 :
美国 (US)
星等 :
--
Orbit Information
数据来源 国际轨道数据 AOE轨道数据
星历时间 2026-09-05T01:42:38+0800
21小时前
查看轨道信息
2026-09-04T00:00:00+0800
1天前
查看轨道信息
半长轴 6840.853km 6840.854km
偏心率 0.0001484 0.0001405
轨道倾角 53.159° 53.157°
近地点辐角 98.398° 43.185°
升交点赤经 141.228° 146.234°
平近点角 261.719° 156.143°
近地点 461.7km 461.755km
远地点 463.732km 463.679km
周期 93.848分钟 93.848分钟
每日圈数 15.34396 15.343957
Detailed Information
固有亮度:
5
最大亮度:
0.3
卫星平台:
Starlink v2.0 mini
覆盖范围:
全球
运营商:
太空探索技术公司
运营商所在国:
美国
制造商(研发单位):
太空探索技术公司
制造商所在国:
美国
使用方式:
暂无
Satellite Introduction
星链(Starlink)计划是由太空探索技术公司(SpaceX)提出的一个巨型低轨卫星互联网星座项目,计划在2019年至2024年间在太空搭建由约1.2万颗卫星组成的“星链”网络,其中1584颗将部署在地球上空550千米处的近地轨道,并从2020年开始工作。该卫星仍在工作。
2D Orbit Map
3D Orbit Map
Orbit Altitude Analysis Chart
Orbit Inclination Analysis Chart
Orbit Comprehensive Analysis Chart
View Comprehensive Chart